Regional Weather Roundup
Issued by NWS

Home | Current Version | Previous Version | Graphics & Text | Print | Product List | Glossary Off
Versions: 1 2 3 4 5 6 7 8 9 10 11 12 13 14 15 16 17 18 19 20 21 22 23 24 25 26 27 28 29 30 31 32 33 34 35 36 37 38 39 40 41 42 43 44 45 46 47 48 49 50

000
ASUS45 KABQ 230310
RWRNM
WEATHER ROUNDUP FOR NEW MEXICO
NATIONAL WEATHER SERVICE ALBUQUERQUE NM
900 PM MDT MON SEP 22 2014

NOTE: "FAIR" MEANS FEW OR NO CLOUDS BELOW 12,000 FEET AGL WITH NO
       SIGNIFICANT WEATHER OR OBSTRUCTIONS TO VISION.

      THIS PRODUCT IS RELEASED AS TWO VERSIONS.  ONE VERSION NEAR
      THE TOP OF THE HOUR CONTAINING PRELIMINARY DATA FROM ALBUQUERQUE
      AND OTHER STATIONS.  A FINAL VERSION WITH ADDITIONAL DATA IS
      ISSUED ABOUT 10 MINUTES AFTER THE HOUR.

NMZ501-503-504-510>518-230400-
NORTHWEST PLATEAU/NORTHCENTRAL MOUNTAINS

CITY           SKY/WX    TMP DP  RH WIND       PRES   REMARKS
FARMINGTON     CLEAR     68  45  43 NE6       30.18R
LOS ALAMOS     DRIZZLE   61  58  90 S6        30.37R
SANTA FE       CLOUDY    61  56  83 SE10      30.31R
TAOS           CLOUDY    57  52  82 CALM      30.33R
ANGEL FIRE     CLOUDY    55  52  88 S12       30.41R

$$
NMZ402-403-502-505>509-230400-
WESTCENTRAL MOUNTAINS/SOUTHWEST MOUNTAINS

CITY           SKY/WX    TMP DP  RH WIND       PRES   REMARKS
GALLUP         MOCLDY    66  56  70 NE3       30.26R
GRANTS         RAIN      61  57  88 S8        30.31R
SILVER CITY    CLOUDY    66  63  88 SE8       30.28R

$$
NMZ407-409-411-412-230400-
SOUTHERN DESERTS

CITY           SKY/WX    TMP DP  RH WIND       PRES   REMARKS
LORDSBURG      FAIR      72  63  73 MISG      30.18R
DEMING         PTCLDY    69  64  84 NE12      30.19R
LAS CRUCES     CLOUDY    66  65  94 SE8       30.23R
T OR C         MOCLDY    68  63  84 S3        30.23R

$$
NMZ519>523-230400-
CENTRAL VALLEYS/CENTRAL HIGHLANDS

CITY           SKY/WX    TMP DP  RH WIND       PRES   REMARKS
ALBUQUERQUE    LGT RAIN  67  60  78 S3        30.26R
DOUBLE EAGLE   CLOUDY    63  61  94 S9        30.27S
MORIARTY ARPT  FAIR      62  58  87 SE7       30.32R
CLINES CORNERS CLOUDY    58  56  93 S9        30.35R
BELEN          TSTM      64  61  91 NW9G16    30.26R
SOCORRO        CLOUDY    67  63  89 SE5       30.26R

$$
NMZ524>526-539-540-230400-
SOUTHCENTRAL MOUNTAINS

CITY           SKY/WX    TMP DP  RH WIND       PRES   REMARKS
RUIDOSO        NOT AVBL

$$
NMZ527>531-230400-
NORTHEAST HIGHLANDS/NORTHEAST PLAINS

CITY           SKY/WX    TMP DP  RH WIND       PRES   REMARKS
LAS VEGAS      CLOUDY    58  57  97 S9        30.36R
RATON          CLOUDY    60  58  92 S15       30.28R
CLAYTON        MOCLDY    63  59  87 S15       30.24R

$$
NMZ532>537-230400-
EASTCENTRAL PLAINS

CITY           SKY/WX    TMP DP  RH WIND       PRES   REMARKS
TUCUMCARI      CLOUDY    65  60  84 SW6       30.24R
CANNON AFB     PTCLDY    64  64 100 SE6       30.27S
CLOVIS AIRPORT   N/A     64  63  94 S8        30.29S

$$
NMZ028-029-538-230400-
SOUTHEAST PLAINS

CITY           SKY/WX    TMP DP  RH WIND       PRES   REMARKS
ROSWELL        CLOUDY    67  64  90 S7        30.21S
CARLSBAD       CLOUDY    69  69 100 S7        30.20R
HOBBS          CLOUDY    68  66  94 CALM      30.25R


$$



USA.gov is the U.S. government's official web portal to all federal, state and local government web resources and services.